Retour au catalogue

STARLINK-36288

ActifCommunicationsVLEO
NORAD 69164·PAYLOAD·🇺🇸 United States

Lancé May 21, 2026 depuis Cape Canaveral Space Force Station

Loading…

Prochains Passages (prochaines 24 heures)

TLE

FraisSource: CelesTrak SupGP

Époque: Sep 15, 2026, 04:08 UTC

1 69164C 26111S   26258.17270833 -.00029966  00000+0 -88517-3 0  2584
2 69164  53.1576  90.6054 0001229  91.5885 180.8031 15.34412326    12

Suivez STARLINK-36288 en temps réel avec AllMySat

Download on the App Store